Weather History for Bentonville, AR

Change the Weather History Date:

Friday, November 11, 2011

  Actual Average Record
Temperature  
Mean Temperature 50 °F -  
Max Temperature 64 °F 56 °F 78 °F (1949)
Min Temperature 35 °F 34 °F 14 °F (1950)
Degree Days  
Heating Degree Days 16    
Moisture  
Dew Point 29 °F    
Average Humidity 46    
Maximum Humidity 75    
Minimum Humidity 26    
Precipitation  
Precipitation 0.00 in - - ()
Sea Level Pressure  
Sea Level Pressure 30.02 in    
Wind  
Wind Speed 8 mph (SSW)    
Max Wind Speed 23 mph    
Max Gust Speed 29 mph    
Visibility 10 miles    
Events      
Averages and records for this station are not official NWS values.
T = Trace of Precipitation, MM = Missing Value Source: NWS Daily Summary

Daily Weather History Graph

Daily Weather History Graph

Search for Another Location

Airport:

Trip Planner

Search our weather history database for the weather conditions in past years. The results will help you decide how hot, cold, wet, or windy it might be!

Date:

Astronomy

Nov. 11, 2011 Rise Set
Actual Time 6:49 AM CST 5:11 PM CST
Civil Twilight 6:22 AM CST 5:38 PM CST
Nautical Twilight 5:51 AM CST 6:09 PM CST
Astronomical Twilight 5:21 AM CST 6:39 PM CST
Moon 5:43 PM CST (11/11) 7:36 AM CST (11/11)
Length of Visible Light 11h 16m
Length of Day
10h 21m
Full, 99% of the Moon is Illuminated
Nov 11
Full
Nov 18
Last Quarter
Nov 25
New
Dec 2
First Quarter
Dec 10
Full

Hourly Weather History & Observations

Time (CST) Temp. Windchill Dew Point Humidity Pressure Visibility Wind Dir Wind Speed Gust Speed Precip Events Conditions
12:15 AM 39.2 °F 37.0 °F 28.4 °F 65% 30.13 in 10.0 mi South 3.5 mph - N/A   Clear
12:35 AM 39.2 °F 35.0 °F 28.4 °F 65% 30.12 in 10.0 mi South 5.8 mph - N/A   Clear
12:55 AM 39.2 °F 35.9 °F 28.4 °F 65% 30.11 in 10.0 mi South 4.6 mph - N/A   Clear
1:15 AM 39.2 °F 37.0 °F 28.4 °F 65% 30.11 in 10.0 mi SSW 3.5 mph - N/A   Clear
1:35 AM 35.6 °F - 28.4 °F 75% 30.11 in 10.0 mi Calm Calm - N/A   Clear
1:55 AM 37.4 °F 33.8 °F 28.4 °F 70% 30.11 in 10.0 mi South 4.6 mph - N/A   Clear
2:35 AM 39.2 °F 35.9 °F 28.4 °F 65% 30.10 in 10.0 mi SSE 4.6 mph - N/A   Clear
2:55 AM 37.4 °F 34.9 °F 28.4 °F 70% 30.09 in 10.0 mi South 3.5 mph - N/A   Clear
3:15 AM 37.4 °F 33.8 °F 28.4 °F 70% 30.08 in 10.0 mi SSE 4.6 mph - N/A   Clear
3:35 AM 37.4 °F - 28.4 °F 70% 30.07 in 10.0 mi Calm Calm - N/A   Clear
3:55 AM 39.2 °F 37.0 °F 28.4 °F 65% 30.07 in 10.0 mi South 3.5 mph - N/A   Clear
4:15 AM 39.2 °F 35.0 °F 28.4 °F 65% 30.06 in 10.0 mi South 5.8 mph - N/A   Clear
4:35 AM 39.2 °F 35.0 °F 28.4 °F 65% 30.06 in 10.0 mi South 5.8 mph - N/A   Clear
5:15 AM 41.0 °F 38.0 °F 30.2 °F 65% 30.05 in 10.0 mi South 4.6 mph - N/A   Clear
5:35 AM 41.0 °F 38.0 °F 28.4 °F 61% 30.05 in 10.0 mi SSW 4.6 mph - N/A   Clear
5:55 AM 41.0 °F 37.1 °F 30.2 °F 65% 30.05 in 10.0 mi SW 5.8 mph - N/A   Clear
6:15 AM 42.8 °F 38.0 °F 30.2 °F 61% 30.05 in 10.0 mi SW 8.1 mph - N/A   Clear
6:35 AM 44.6 °F 40.2 °F 30.2 °F 57% 30.06 in 10.0 mi SW 8.1 mph - N/A   Clear
6:55 AM 44.6 °F 39.7 °F 30.2 °F 57% 30.05 in 10.0 mi SSW 9.2 mph - N/A   Clear
7:55 AM 48.2 °F - 30.2 °F 50% 30.05 in 10.0 mi SSW 11.5 mph - N/A   Clear
8:15 AM 50.0 °F - 30.2 °F 47% 30.05 in 10.0 mi SSW 11.5 mph 18.4 mph N/A   Clear
8:35 AM 51.8 °F - 30.2 °F 44% 30.05 in 10.0 mi SW 13.8 mph 21.9 mph N/A   Clear
8:55 AM 51.8 °F - 30.2 °F 44% 30.05 in 10.0 mi SW 17.3 mph 25.3 mph N/A   Clear
9:15 AM 53.6 °F - 30.2 °F 41% 30.04 in 10.0 mi SW 17.3 mph 25.3 mph N/A   Clear
9:35 AM 53.6 °F - 30.2 °F 41% 30.04 in 10.0 mi SW 17.3 mph 23.0 mph N/A   Clear
9:55 AM 55.4 °F - 30.2 °F 38% 30.04 in 10.0 mi SW 16.1 mph 21.9 mph N/A   Clear
10:15 AM 55.4 °F - 30.2 °F 38% 30.03 in 10.0 mi SW 15.0 mph 25.3 mph N/A   Clear
10:35 AM 57.2 °F - 30.2 °F 36% 30.02 in 10.0 mi SSW 16.1 mph 19.6 mph N/A   Clear
10:55 AM 59.0 °F - 30.2 °F 34% 30.03 in 10.0 mi SSW 12.7 mph 23.0 mph N/A   Clear
11:15 AM 60.8 °F - 32.0 °F 34% 30.01 in 10.0 mi SSW 15.0 mph 20.7 mph N/A   Clear
11:35 AM 60.8 °F - 30.2 °F 31% 30.00 in 10.0 mi SSW 16.1 mph 20.7 mph N/A   Clear
11:55 AM 62.6 °F - 30.2 °F 30% 29.98 in 10.0 mi SW 15.0 mph 26.5 mph N/A   Clear
12:35 PM 62.6 °F - 30.2 °F 30% 29.97 in 10.0 mi SW 18.4 mph 26.5 mph N/A   Clear
12:55 PM 62.6 °F - 30.2 °F 30% 29.97 in 10.0 mi SW 20.7 mph 26.5 mph N/A   Clear
1:35 PM 64.4 °F - 30.2 °F 28% 29.96 in 10.0 mi SW 15.0 mph 24.2 mph N/A   Clear
1:55 PM 64.4 °F - 28.4 °F 26% 29.95 in 10.0 mi SW 18.4 mph 25.3 mph N/A   Clear
2:15 PM 64.4 °F - 30.2 °F 28% 29.95 in 10.0 mi SW 23.0 mph 28.8 mph N/A   Clear
2:35 PM 64.4 °F - 30.2 °F 28% 29.95 in 10.0 mi SSW 17.3 mph 23.0 mph N/A   Clear
2:55 PM 64.4 °F - 30.2 °F 28% 29.95 in 10.0 mi SSW 16.1 mph 25.3 mph N/A   Clear
3:15 PM 64.4 °F - 28.4 °F 26% 29.95 in 9.0 mi SSW 15.0 mph 23.0 mph N/A   Clear
3:35 PM 64.4 °F - 28.4 °F 26% 29.94 in 10.0 mi SSW 16.1 mph 21.9 mph N/A   Clear
3:55 PM 62.6 °F - 30.2 °F 30% 29.94 in 10.0 mi SSW 15.0 mph 19.6 mph N/A   Clear
4:35 PM 60.8 °F - 28.4 °F 29% 29.94 in 10.0 mi SSW 12.7 mph 21.9 mph N/A   Clear
4:55 PM 60.8 °F - 28.4 °F 29% 29.94 in 10.0 mi SSW 10.4 mph - N/A   Clear
5:35 PM 57.2 °F - 28.4 °F 33% 29.93 in 10.0 mi SSW 9.2 mph - N/A   Clear
5:55 PM 55.4 °F - 28.4 °F 36% 29.93 in 10.0 mi South 8.1 mph - N/A   Clear
6:15 PM 55.4 °F - 28.4 °F 36% 29.93 in 10.0 mi South 8.1 mph - N/A   Clear
6:35 PM 55.4 °F - 28.4 °F 36% 29.94 in 10.0 mi South 6.9 mph - N/A   Clear
6:55 PM 53.6 °F - 28.4 °F 38% 29.94 in 10.0 mi South 8.1 mph - N/A   Clear
7:15 PM 53.6 °F - 26.6 °F 35% 29.94 in 10.0 mi SSW 6.9 mph - N/A   Clear
7:55 PM 53.6 °F - 26.6 °F 35% 29.95 in 10.0 mi SSW 10.4 mph - N/A   Clear
8:15 PM 51.8 °F - 28.4 °F 41% 29.95 in 10.0 mi SSW 8.1 mph - N/A   Clear
8:55 PM 51.8 °F - 28.4 °F 41% 29.96 in 10.0 mi SSW 9.2 mph - N/A   Clear
9:15 PM 51.8 °F - 28.4 °F 41% 29.96 in 10.0 mi SSW 10.4 mph - N/A   Clear
9:35 PM 53.6 °F - 26.6 °F 35% 29.96 in 10.0 mi SSW 11.5 mph 17.3 mph N/A   Clear
10:15 PM 51.8 °F - 26.6 °F 38% 29.95 in 10.0 mi South 10.4 mph - N/A   Clear
10:35 PM 51.8 °F - 26.6 °F 38% 29.94 in 10.0 mi South 8.1 mph - N/A   Clear
10:55 PM 51.8 °F - 26.6 °F 38% 29.94 in 10.0 mi South 6.9 mph - N/A   Clear
11:15 PM 50.0 °F - 26.6 °F 40% 29.94 in 10.0 mi South 10.4 mph - N/A   Clear
11:55 PM 51.8 °F - 26.6 °F 38% 29.93 in 10.0 mi SSW 10.4 mph 17.3 mph N/A   Clear